Location: Ohmer (historical)
(38.0096°N, 122.0227°W)
Time: 01:03:16
(UTC+00:00)

GP-B - Pass Details

Date: 14 February 2026
Orbit: 618 x 621 km, 89.8° (Epoch: 9 March)

Event Time Altitude Azimuth Distance (km) Brightness Sun altitude
Rises 14:20:51 0° 354° (N) 2,901 6.3 -8.2°
Reaches altitude 10° 14:23:09 10° 347° (NNW) 1,990 5.4 -7.7°
Maximum altitude 14:27:15 41° 277° (W) 897 3.4 -6.9°
Drops below altitude 10° 14:31:19 10° 207° (SSW) 1,975 5.5 -6.1°
Sets 14:33:36 0° 200° (SSW) 2,876 6.4 -5.7°
